User: anonymous   Login
Location: Chiroubles
(46.1812°N, 4.6660°E)
Time: 18:53:58
(UTC+00:00)
Language:

Cosmos 1805 Rocket - Orbit

View from above orbital plane
View from above orbital plane
View from above satellite
View from above satellite

Ground track
Ground track

The orbit data is extracted from the following two-line orbital elements,

1 17192U 86097B   21340.50943740  .00000098  00000-0  89144-5 0  9990
2 17192  82.5052 163.3695 0018340 114.9522 301.0886 14.83677604869754
Epoch (UTC): 06 December 2021 12:13:35
Eccentricity: 0.0018340
inclination: 82.5052°
perigee height: 605 km
apogee height: 630 km
right ascension of ascending node: 163.3695°
argument of perigee: 114.9522°
revolutions per day: 14.83677604
mean anomaly at epoch: 301.0886°
orbit number at epoch: 86975

The dashed part of the orbit path shows where the satellite is in the earth's shadow,  

DLR